Weather History for Fort Smith, AR

Change the Weather History Date:

Wednesday, April 17, 2013

  Actual Average Record
Temperature  
Mean Temperature 79 °F 62 °F  
Max Temperature 87 °F 74 °F 95 °F (2006)
Min Temperature 70 °F 50 °F 29 °F (1951)
Degree Days  
Heating Degree Days 0 5  
Month to date heating degree days 104 111  
Since 1 July heating degree days 2896 3170  
Cooling Degree Days 14 2  
Month to date cooling degree days 56 24  
Year to date cooling degree days 59 36  
Growing Degree Days 28 (Base 50)    
Moisture  
Dew Point 66 °F    
Average Humidity 65    
Maximum Humidity 84    
Minimum Humidity 45    
Precipitation  
Precipitation T in 0.14 in 1.76 in (1991)
Month to date precipitation 1.88 2.28  
Year to date precipitation 13.73 11.70  
Sea Level Pressure  
Sea Level Pressure 29.82 in    
Wind  
Wind Speed 10 mph (SE)    
Max Wind Speed 22 mph    
Max Gust Speed 31 mph    
Visibility 10 miles    
Events Rain    
T = Trace of Precipitation, MM = Missing Value Source: NWS Daily Summary

Daily Weather History Graph

Daily Weather History Graph

Search for Another Location

Airport:

Trip Planner

Search our weather history database for the weather conditions in past years. The results will help you decide how hot, cold, wet, or windy it might be!

Date:

Astronomy

Apr. 17, 2013 Rise Set
Actual Time 6:42 AM CDT 7:52 PM CDT
Civil Twilight 6:15 AM CDT 8:18 PM CDT
Nautical Twilight 5:44 AM CDT 8:49 PM CDT
Astronomical Twilight 5:12 AM CDT 9:22 PM CDT
Moon 12:01 PM CDT (4/17) 1:26 AM CDT (4/17)
Length of Visible Light 14h 02m
Length of Day
13h 10m
Waxing Crescent, 42% of the Moon is Illuminated
Apr 17
Waxing Crescent
Apr 18
First Quarter
Apr 25
Full
May 2
Last Quarter
May 9
New

Hourly Weather History & Observations

Time (CDT) Temp. Heat Index Dew Point Humidity Pressure Visibility Wind Dir Wind Speed Gust Speed Precip Events Conditions
12:53 AM 75.9 °F - 64.9 °F 69% 29.91 in 10.0 mi ESE 5.8 mph - N/A   Scattered Clouds
1:53 AM 73.9 °F - 66.0 °F 76% 29.91 in 10.0 mi East 4.6 mph - N/A   Mostly Cloudy
2:53 AM 73.0 °F - 66.0 °F 79% 29.90 in 10.0 mi East 3.5 mph - N/A   Clear
3:53 AM 71.1 °F - 66.0 °F 84% 29.89 in 9.0 mi NE 5.8 mph - N/A   Clear
4:53 AM 71.1 °F - 66.0 °F 84% 29.89 in 9.0 mi ENE 4.6 mph - N/A   Clear
5:53 AM 75.0 °F - 66.0 °F 73% 29.89 in 10.0 mi SE 4.6 mph - N/A   Mostly Cloudy
6:53 AM 73.0 °F - 66.9 °F 81% 29.90 in 9.0 mi East 5.8 mph - 0.00 in Rain Light Rain
7:49 AM 75.2 °F - 66.2 °F 73% 29.92 in 9.0 mi ESE 6.9 mph - 0.00 in   Overcast
7:53 AM 75.0 °F - 66.9 °F 76% 29.90 in 9.0 mi ESE 8.1 mph - 0.00 in   Overcast
8:53 AM 75.2 °F - 68.0 °F 78% 29.92 in 9.0 mi ESE 6.9 mph - N/A   Overcast
9:24 AM 77.0 °F - 69.8 °F 78% 29.92 in 10.0 mi SSE 6.9 mph - N/A   Scattered Clouds
9:53 AM 78.1 °F - 69.1 °F 74% 29.90 in 10.0 mi SSE 10.4 mph 16.1 mph N/A   Scattered Clouds
10:53 AM 80.1 °F 82.7 °F 68.0 °F 67% 29.88 in 10.0 mi ESE 10.4 mph 17.3 mph N/A   Mostly Cloudy
11:10 AM 78.8 °F - 66.2 °F 65% 29.89 in 10.0 mi SE 8.1 mph - N/A   Overcast
11:23 AM 78.8 °F - 66.2 °F 65% 29.89 in 10.0 mi SSE 10.4 mph - N/A   Overcast
11:53 AM 79.0 °F - 66.0 °F 64% 29.86 in 10.0 mi SE 11.5 mph - N/A   Overcast
12:53 PM 81.0 °F 83.0 °F 66.0 °F 60% 29.83 in 10.0 mi ESE 12.7 mph 18.4 mph N/A   Mostly Cloudy
1:53 PM 82.9 °F 85.0 °F 66.0 °F 56% 29.80 in 10.0 mi SSE 12.7 mph 21.9 mph N/A   Mostly Cloudy
2:53 PM 82.9 °F 84.6 °F 64.9 °F 54% 29.79 in 10.0 mi SSE 16.1 mph 21.9 mph N/A   Mostly Cloudy
3:53 PM 86.0 °F 87.6 °F 64.9 °F 49% 29.73 in 10.0 mi South 10.4 mph 24.2 mph N/A   Mostly Cloudy
4:53 PM 87.1 °F 88.9 °F 64.9 °F 48% 29.70 in 10.0 mi South 16.1 mph 23.0 mph N/A   Clear
5:53 PM 86.0 °F 86.8 °F 63.0 °F 46% 29.70 in 10.0 mi South 16.1 mph 20.7 mph N/A   Clear
6:53 PM 84.0 °F 84.9 °F 63.0 °F 49% 29.69 in 10.0 mi South 8.1 mph - N/A   Partly Cloudy
7:53 PM 82.0 °F 83.1 °F 63.0 °F 52% 29.67 in 10.0 mi SSE 9.2 mph - N/A   Scattered Clouds
8:53 PM 81.0 °F 82.2 °F 63.0 °F 54% 29.66 in 10.0 mi SE 6.9 mph - N/A   Partly Cloudy
9:53 PM 81.0 °F 82.2 °F 63.0 °F 54% 29.68 in 10.0 mi South 6.9 mph - N/A   Mostly Cloudy
10:53 PM 82.0 °F 83.4 °F 64.0 °F 54% 29.65 in 10.0 mi South 11.5 mph - N/A   Mostly Cloudy
11:53 PM 81.0 °F 82.7 °F 64.9 °F 58% 29.62 in 10.0 mi South 9.2 mph 17.3 mph N/A   Scattered Clouds